Time,TemperatureF,DewpointF,PressureIn,WindDirection,WindDirectionDegrees,WindSpeedMPH,WindSpeedGustMPH,Humidity,HourlyPrecipIn,Conditions,Clouds,dailyrainin,SolarRadiationWatts/m^2,SoftwareType,DateUTC
2013-04-12 00:03:00,46.0,44.0,-100.00,NW,324,0.0,171.0,91,0.00,,,1.88,0.000000,,2013-04-12 05:03:00,
2013-04-12 00:12:00,46.0,44.0,-100.00,NW,324,0.0,171.0,91,0.00,,,1.88,0.000000,,2013-04-12 05:12:00,
2013-04-12 00:23:00,46.0,44.0,-100.00,NW,324,0.0,171.0,91,0.00,,,1.88,0.000000,,2013-04-12 05:23:00,
2013-04-12 00:32:00,45.0,43.0,-100.00,SSW,212,0.0,2.0,91,0.00,,,1.58,0.000000,,2013-04-12 05:32:00,
2013-04-12 00:52:00,45.0,43.0,-100.00,SSW,212,0.0,2.0,91,0.00,,,1.58,0.000000,,2013-04-12 05:52:00,
2013-04-12 01:02:00,45.0,43.0,-100.00,SSW,212,0.0,2.0,91,0.00,,,1.58,0.000000,,2013-04-12 06:02:00,
2013-04-12 01:12:00,45.0,43.0,-100.00,SSW,212,0.0,2.0,91,0.00,,,1.58,0.000000,,2013-04-12 06:12:00,
2013-04-12 01:22:00,45.0,43.0,-100.00,SSW,212,0.0,2.0,91,0.00,,,1.58,0.000000,,2013-04-12 06:22:00,
2013-04-12 01:32:00,44.0,42.0,-100.00,North,5,0.0,0.0,92,0.00,,,1.38,0.000000,,2013-04-12 06:32:00,
2013-04-12 01:52:00,44.0,42.0,-100.00,North,5,0.0,0.0,92,0.00,,,1.38,0.000000,,2013-04-12 06:52:00,
2013-04-12 02:02:00,44.0,42.0,-100.00,North,5,0.0,0.0,92,0.00,,,1.38,0.000000,,2013-04-12 07:02:00,
2013-04-12 02:11:00,44.0,42.0,-100.00,North,5,0.0,0.0,92,0.00,,,1.38,0.000000,,2013-04-12 07:11:00,
2013-04-12 02:22:00,44.0,42.0,-100.00,North,5,0.0,0.0,92,0.00,,,1.38,0.000000,,2013-04-12 07:22:00,
2013-04-12 02:32:00,43.0,41.0,-100.00,NE,46,0.0,0.0,92,0.00,,,1.27,0.000000,,2013-04-12 07:32:00,
2013-04-12 02:52:00,43.0,41.0,-100.00,NE,46,0.0,0.0,92,0.00,,,1.27,0.000000,,2013-04-12 07:52:00,
2013-04-12 03:03:00,43.0,41.0,-100.00,NE,46,0.0,0.0,92,0.00,,,1.27,0.000000,,2013-04-12 08:03:00,
2013-04-12 03:12:00,43.0,41.0,-100.00,NE,46,0.0,0.0,92,0.00,,,1.27,0.000000,,2013-04-12 08:12:00,
2013-04-12 03:22:00,43.0,41.0,-100.00,NE,46,0.0,0.0,92,0.00,,,1.27,0.000000,,2013-04-12 08:22:00,
2013-04-12 03:32:00,43.0,41.0,-100.00,West,274,0.0,0.0,92,0.00,,,1.18,0.000000,,2013-04-12 08:32:00,
2013-04-12 03:52:00,43.0,41.0,-100.00,West,274,0.0,0.0,92,0.00,,,1.18,0.000000,,2013-04-12 08:52:00,
2013-04-12 04:02:00,43.0,41.0,-100.00,West,274,0.0,0.0,92,0.00,,,1.18,0.000000,,2013-04-12 09:02:00,
2013-04-12 04:12:00,43.0,41.0,-100.00,West,274,0.0,0.0,92,0.00,,,1.18,0.000000,,2013-04-12 09:12:00,
2013-04-12 04:22:00,43.0,41.0,-100.00,West,274,0.0,0.0,92,0.00,,,1.18,0.000000,,2013-04-12 09:22:00,
2013-04-12 04:32:00,42.0,40.0,-100.00,SW,219,0.0,0.0,92,0.00,,,1.17,0.000000,,2013-04-12 09:32:00,
2013-04-12 04:53:00,42.0,40.0,-100.00,SW,219,0.0,0.0,92,0.00,,,1.17,0.000000,,2013-04-12 09:53:00,
2013-04-12 05:03:00,42.0,40.0,-100.00,SW,219,0.0,0.0,92,0.00,,,1.17,0.000000,,2013-04-12 10:03:00,
2013-04-12 05:12:00,42.0,40.0,-100.00,SW,219,0.0,0.0,92,0.00,,,1.17,0.000000,,2013-04-12 10:12:00,
2013-04-12 05:23:00,42.0,40.0,-100.00,SW,219,0.0,0.0,92,0.00,,,1.17,0.000000,,2013-04-12 10:23:00,
2013-04-12 05:32:00,41.0,39.0,-100.00,South,186,2.0,128.0,92,0.00,,,1.16,0.000000,,2013-04-12 10:32:00,
2013-04-12 05:53:00,41.0,39.0,-100.00,South,186,2.0,128.0,92,0.00,,,1.16,0.000000,,2013-04-12 10:53:00,
2013-04-12 06:02:00,41.0,39.0,-100.00,South,186,2.0,128.0,92,0.00,,,1.16,0.000000,,2013-04-12 11:02:00,
2013-04-12 06:13:00,41.0,39.0,-100.00,South,186,2.0,128.0,92,0.00,,,1.16,0.000000,,2013-04-12 11:13:00,
2013-04-12 06:22:00,41.0,39.0,-100.00,South,186,2.0,128.0,92,0.00,,,1.16,0.000000,,2013-04-12 11:22:00,
2013-04-12 06:32:00,40.0,38.0,-100.00,South,189,0.0,3.0,92,0.00,,,1.02,0.000000,,2013-04-12 11:32:00,
2013-04-12 06:52:00,40.0,38.0,-100.00,South,189,0.0,3.0,92,0.00,,,1.02,0.000000,,2013-04-12 11:52:00,
2013-04-12 07:02:00,40.0,38.0,-100.00,South,189,0.0,3.0,92,0.00,,,1.02,0.000000,,2013-04-12 12:02:00,
2013-04-12 07:13:00,40.0,38.0,-100.00,South,189,0.0,3.0,92,0.00,,,1.02,0.000000,,2013-04-12 12:13:00,
2013-04-12 07:22:00,40.0,38.0,-100.00,South,189,0.0,3.0,92,0.00,,,1.02,0.000000,,2013-04-12 12:22:00,
2013-04-12 07:32:00,44.0,42.0,-100.00,East,81,0.0,2.0,92,0.00,,,0.87,34.000000,,2013-04-12 12:32:00,
2013-04-12 07:53:00,44.0,42.0,-100.00,East,81,0.0,2.0,92,0.00,,,0.87,34.000000,,2013-04-12 12:53:00,
2013-04-12 08:03:00,44.0,42.0,-100.00,East,81,0.0,2.0,92,0.00,,,0.87,34.000000,,2013-04-12 13:03:00,
2013-04-12 08:12:00,44.0,42.0,-100.00,East,81,0.0,2.0,92,0.00,,,0.87,34.000000,,2013-04-12 13:12:00,
2013-04-12 08:22:00,44.0,42.0,-100.00,East,81,0.0,2.0,92,0.00,,,0.87,34.000000,,2013-04-12 13:22:00,
2013-04-12 08:32:00,51.0,48.0,-100.00,ENE,57,1.0,4.0,91,0.00,,,0.30,196.000000,,2013-04-12 13:32:00,
2013-04-12 08:53:00,51.0,48.0,-100.00,ENE,57,1.0,4.0,91,0.00,,,0.30,196.000000,,2013-04-12 13:53:00,
2013-04-12 09:03:00,51.0,48.0,-100.00,ENE,57,1.0,4.0,91,0.00,,,0.30,196.000000,,2013-04-12 14:03:00,
2013-04-12 09:13:00,51.0,48.0,-100.00,ENE,57,1.0,4.0,91,0.00,,,0.30,196.000000,,2013-04-12 14:13:00,
2013-04-12 09:22:00,51.0,48.0,-100.00,ENE,57,1.0,4.0,91,0.00,,,0.30,196.000000,,2013-04-12 14:22:00,
2013-04-12 09:32:00,58.0,40.0,-100.00,ENE,60,3.0,7.0,52,0.00,,,0.14,539.000000,,2013-04-12 14:32:00,
2013-04-12 09:53:00,58.0,40.0,-100.00,ENE,60,3.0,7.0,52,0.00,,,0.14,539.000000,,2013-04-12 14:53:00,
2013-04-12 10:03:00,58.0,40.0,-100.00,ENE,60,3.0,7.0,52,0.00,,,0.14,539.000000,,2013-04-12 15:03:00,
2013-04-12 10:12:00,58.0,40.0,-100.00,ENE,60,3.0,7.0,52,0.00,,,0.14,539.000000,,2013-04-12 15:12:00,
2013-04-12 10:22:00,58.0,40.0,-100.00,ENE,60,3.0,7.0,52,0.00,,,0.14,539.000000,,2013-04-12 15:22:00,
2013-04-12 10:32:00,63.0,41.0,-100.00,East,93,3.0,7.0,44,0.00,,,-99.99,755.000000,,2013-04-12 15:32:00,
2013-04-12 10:53:00,63.0,41.0,-100.00,East,93,3.0,7.0,44,0.00,,,-99.99,755.000000,,2013-04-12 15:53:00,
2013-04-12 11:04:00,63.0,41.0,-100.00,East,93,3.0,7.0,44,0.00,,,-99.99,755.000000,,2013-04-12 16:04:00,
2013-04-12 11:13:00,63.0,41.0,-100.00,East,93,3.0,7.0,44,0.00,,,-99.99,755.000000,,2013-04-12 16:13:00,
2013-04-12 11:23:00,63.0,41.0,-100.00,East,93,3.0,7.0,44,0.00,,,-99.99,755.000000,,2013-04-12 16:23:00,
2013-04-12 11:32:00,66.0,37.0,-100.00,WNW,282,5.0,11.0,34,0.00,,,0.02,922.000000,,2013-04-12 16:32:00,
2013-04-12 11:53:00,66.0,37.0,-100.00,WNW,282,5.0,11.0,34,0.00,,,0.02,922.000000,,2013-04-12 16:53:00,
2013-04-12 12:03:00,66.0,37.0,-100.00,WNW,282,5.0,11.0,34,0.00,,,0.02,922.000000,,2013-04-12 17:03:00,
2013-04-12 12:12:00,66.0,37.0,-100.00,WNW,282,5.0,11.0,34,0.00,,,0.02,922.000000,,2013-04-12 17:12:00,
2013-04-12 12:23:00,66.0,37.0,-100.00,WNW,282,5.0,11.0,34,0.00,,,0.02,922.000000,,2013-04-12 17:23:00,
2013-04-12 13:06:00,69.0,39.0,-100.00,SW,234,6.0,13.0,34,0.00,,,0.00,1019.000000,,2013-04-12 18:06:00,
2013-04-12 13:20:00,69.0,39.0,-100.00,SW,234,6.0,13.0,34,0.00,,,0.00,1019.000000,,2013-04-12 18:20:00,
2013-04-12 13:32:00,71.0,37.0,-100.00,West,269,7.0,18.0,29,0.00,,,0.00,1050.000000,,2013-04-12 18:32:00,
2013-04-12 14:26:00,71.0,37.0,-100.00,West,269,7.0,18.0,29,0.00,,,0.00,1050.000000,,2013-04-12 19:26:00,
2013-04-12 14:32:00,73.0,36.0,-100.00,WNW,285,5.0,13.0,26,0.00,,,0.00,1012.000000,,2013-04-12 19:32:00,
2013-04-12 14:53:00,73.0,36.0,-100.00,WNW,285,5.0,13.0,26,0.00,,,0.00,1012.000000,,2013-04-12 19:53:00,
2013-04-12 15:02:00,73.0,36.0,-100.00,WNW,285,5.0,13.0,26,0.00,,,0.00,1012.000000,,2013-04-12 20:02:00,
2013-04-12 15:12:00,73.0,36.0,-100.00,WNW,285,5.0,13.0,26,0.00,,,0.00,1012.000000,,2013-04-12 20:12:00,
2013-04-12 15:22:00,73.0,36.0,-100.00,WNW,285,5.0,13.0,26,0.00,,,0.00,1012.000000,,2013-04-12 20:22:00,
2013-04-12 15:32:00,76.0,39.0,-100.00,NW,313,4.0,13.0,26,0.00,,,0.00,904.000000,,2013-04-12 20:32:00,
2013-04-12 15:52:00,76.0,39.0,-100.00,NW,313,4.0,13.0,26,0.00,,,0.00,904.000000,,2013-04-12 20:52:00,
2013-04-12 16:02:00,76.0,39.0,-100.00,NW,313,4.0,13.0,26,0.00,,,0.00,904.000000,,2013-04-12 21:02:00,
2013-04-12 16:12:00,76.0,39.0,-100.00,NW,313,4.0,13.0,26,0.00,,,0.00,904.000000,,2013-04-12 21:12:00,
2013-04-12 16:22:00,76.0,39.0,-100.00,NW,313,4.0,13.0,26,0.00,,,0.00,904.000000,,2013-04-12 21:22:00,
2013-04-12 16:32:00,76.0,37.0,-100.00,NNW,333,4.0,12.0,24,0.00,,,0.00,741.000000,,2013-04-12 21:32:00,
2013-04-12 16:53:00,76.0,37.0,-100.00,NNW,333,4.0,12.0,24,0.00,,,0.00,741.000000,,2013-04-12 21:53:00,
2013-04-12 17:02:00,76.0,37.0,-100.00,NNW,333,4.0,12.0,24,0.00,,,0.00,741.000000,,2013-04-12 22:02:00,
2013-04-12 17:13:00,76.0,37.0,-100.00,NNW,333,4.0,12.0,24,0.00,,,0.00,741.000000,,2013-04-12 22:13:00,
2013-04-12 17:22:00,76.0,37.0,-100.00,NNW,333,4.0,12.0,24,0.00,,,0.00,741.000000,,2013-04-12 22:22:00,
2013-04-12 17:32:00,75.0,36.0,-100.00,WSW,254,5.0,12.0,24,0.00,,,0.00,533.000000,,2013-04-12 22:32:00,
2013-04-12 18:03:00,75.0,36.0,-100.00,WSW,254,5.0,12.0,24,0.00,,,0.00,533.000000,,2013-04-12 23:03:00,
2013-04-12 18:12:00,75.0,36.0,-100.00,WSW,254,5.0,12.0,24,0.00,,,0.00,533.000000,,2013-04-12 23:12:00,
2013-04-12 18:22:00,75.0,36.0,-100.00,WSW,254,5.0,12.0,24,0.00,,,0.00,533.000000,,2013-04-12 23:22:00,
2013-04-12 18:32:00,75.0,38.0,-100.00,West,281,3.0,10.0,26,0.00,,,0.00,303.000000,,2013-04-12 23:32:00,
2013-04-12 18:52:00,75.0,38.0,-100.00,West,281,3.0,10.0,26,0.00,,,0.00,303.000000,,2013-04-12 23:52:00,
2013-04-12 19:02:00,75.0,38.0,-100.00,West,281,3.0,10.0,26,0.00,,,0.00,303.000000,,2013-04-13 00:02:00,
2013-04-12 19:12:00,75.0,38.0,-100.00,West,281,3.0,10.0,26,0.00,,,0.00,303.000000,,2013-04-13 00:12:00,
2013-04-12 19:22:00,75.0,38.0,-100.00,West,281,3.0,10.0,26,0.00,,,0.00,303.000000,,2013-04-13 00:22:00,
2013-04-12 19:32:00,66.0,46.0,-100.00,SSW,192,0.0,10.0,49,0.00,,,0.00,86.000000,,2013-04-13 00:32:00,
2013-04-12 19:52:00,66.0,46.0,-100.00,SSW,192,0.0,10.0,49,0.00,,,0.00,86.000000,,2013-04-13 00:52:00,
2013-04-12 20:02:00,66.0,46.0,-100.00,SSW,192,0.0,10.0,49,0.00,,,0.00,86.000000,,2013-04-13 01:02:00,
2013-04-12 20:13:00,66.0,46.0,-100.00,SSW,192,0.0,10.0,49,0.00,,,0.00,86.000000,,2013-04-13 01:13:00,
2013-04-12 20:22:00,66.0,46.0,-100.00,SSW,192,0.0,10.0,49,0.00,,,0.00,86.000000,,2013-04-13 01:22:00,
2013-04-12 20:32:00,59.0,48.0,-100.00,WSW,252,0.0,0.0,66,0.00,,,0.00,2.000000,,2013-04-13 01:32:00,
2013-04-12 20:52:00,59.0,48.0,-100.00,WSW,252,0.0,0.0,66,0.00,,,0.00,2.000000,,2013-04-13 01:52:00,
2013-04-12 21:02:00,59.0,48.0,-100.00,WSW,252,0.0,0.0,66,0.00,,,0.00,2.000000,,2013-04-13 02:02:00,
2013-04-12 21:12:00,59.0,48.0,-100.00,WSW,252,0.0,0.0,66,0.00,,,0.00,2.000000,,2013-04-13 02:12:00,
2013-04-12 21:22:00,59.0,48.0,-100.00,WSW,252,0.0,0.0,66,0.00,,,0.00,2.000000,,2013-04-13 02:22:00,
2013-04-12 21:32:00,56.0,46.0,-100.00,North,355,0.0,0.0,69,0.00,,,0.00,0.000000,,2013-04-13 02:32:00,
2013-04-12 21:53:00,56.0,46.0,-100.00,North,355,0.0,0.0,69,0.00,,,0.00,0.000000,,2013-04-13 02:53:00,
2013-04-12 22:02:00,56.0,46.0,-100.00,North,355,0.0,0.0,69,0.00,,,0.00,0.000000,,2013-04-13 03:02:00,
2013-04-12 22:12:00,56.0,46.0,-100.00,North,355,0.0,0.0,69,0.00,,,0.00,0.000000,,2013-04-13 03:12:00,
2013-04-12 22:23:00,56.0,46.0,-100.00,North,355,0.0,0.0,69,0.00,,,0.00,0.000000,,2013-04-13 03:23:00,
2013-04-12 22:32:00,54.0,44.0,-100.00,ENE,57,0.0,0.0,69,0.00,,,0.00,0.000000,,2013-04-13 03:32:00,
2013-04-12 22:53:00,54.0,44.0,-100.00,ENE,57,0.0,0.0,69,0.00,,,0.00,0.000000,,2013-04-13 03:53:00,
2013-04-12 23:03:00,54.0,44.0,-100.00,ENE,57,0.0,0.0,69,0.00,,,0.00,0.000000,,2013-04-13 04:03:00,
2013-04-12 23:12:00,54.0,44.0,-100.00,ENE,57,0.0,0.0,69,0.00,,,0.00,0.000000,,2013-04-13 04:12:00,
2013-04-12 23:23:00,54.0,44.0,-100.00,ENE,57,0.0,0.0,69,0.00,,,0.00,0.000000,,2013-04-13 04:23:00,
2013-04-12 23:32:00,52.0,44.0,-100.00,NE,45,0.0,0.0,73,0.00,,,0.00,0.000000,,2013-04-13 04:32:00,
2013-04-12 23:53:00,52.0,44.0,-100.00,NE,45,0.0,0.0,73,0.00,,,0.00,0.000000,,2013-04-13 04:53:00,